This is the latest recevied weather packets stored in our database for station/object AD0YN. If no packets are shown the sender has not sent any weather packets the latest 10 day(s).
| Time | Temp. | Humidity | Pressure | Rain* | Wind** | Luminosity | Snow |
|---|---|---|---|---|---|---|---|
| 1777943305 | 24.44° C | 44% | 1000.8 hPa | 0 mm | - | 4 W/m² | - |
| 1777943001 | 23.89° C | 44% | 1001 hPa | 0 mm | - | 7 W/m² | - |
| 1777942698 | 23.89° C | 45% | 1000.7 hPa | 0 mm | - | 10 W/m² | - |
| 1777942395 | 23.89° C | 45% | 1000.4 hPa | 0 mm | - | 14 W/m² | - |
| 1777942092 | 23.89° C | 46% | 1000.3 hPa | 0 mm | - | 21 W/m² | - |
| 1777941788 | 25° C | 44% | 1000.5 hPa | 0 mm | - | 28 W/m² | - |
| 1777941486 | 25° C | 41% | 1000.3 hPa | 0 mm | - | 34 W/m² | - |
| 1777941183 | 25° C | 41% | 1000.4 hPa | 0 mm | - | 45 W/m² | - |
| 1777940879 | 25° C | 41% | 1000.3 hPa | 0 mm | - | 51 W/m² | - |
| 1777940576 | 25° C | 42% | 1000.4 hPa | 0 mm | - | 57 W/m² | - |
| 1777940274 | 25.56° C | 40% | 1000.5 hPa | 0 mm | - | 51 W/m² | - |
| 1777939971 | 25.56° C | 40% | 1000.6 hPa | 0 mm | - | 53 W/m² | - |
| 1777939668 | 25.56° C | 39% | 1000.5 hPa | 0 mm | - | 65 W/m² | - |
| 1777939366 | 26.11° C | 38% | 1000.5 hPa | 0 mm | - | 69 W/m² | - |
| 1777939062 | 26.11° C | 39% | 1000.4 hPa | 0 mm | - | 74 W/m² | - |
| 1777938759 | 26.11° C | 38% | 1000.6 hPa | 0 mm | - | 66 W/m² | - |
| 1777938456 | 25.56° C | 39% | 1000.5 hPa | 0 mm | - | 107 W/m² | - |
| 1777938153 | 26.11° C | 38% | 1000.7 hPa | 0 mm | - | 62 W/m² | - |
| 1777937850 | 26.11° C | 39% | 1000.7 hPa | 0 mm | - | 63 W/m² | - |
| 1777937545 | 26.67° C | 37% | 1000.4 hPa | 0 mm | - | 69 W/m² | - |
| 1777937243 | 26.67° C | 37% | 1000.4 hPa | 0 mm | - | 80 W/m² | - |
| 1777936939 | 26.67° C | 38% | 1000.4 hPa | 0 mm | - | 96 W/m² | - |
| 1777936636 | 26.67° C | 36% | 1000.3 hPa | 0 mm | - | 108 W/m² | - |
| 1777936333 | 27.22° C | 34% | 1000.6 hPa | 0 mm | - | 99 W/m² | - |
| 1777936028 | 27.22° C | 34% | 1000.6 hPa | 0 mm | - | 110 W/m² | - |
* Rain latest hour (hover to see other rain measurements)
** Current wind speed in m/s (hover to see current wind gust speed)